Location: Unspecified
(0.0000°N, 0.0000°E)
Time: 06:36:17
(UTC+00:00)

Vanguard 2 - Pass Details

Date: 22 November 2019
Orbit: 553 x 2938 km, 32.9° (Epoch: 10 December)

Event Time Altitude Azimuth Distance (km) Brightness Sun altitude
Rises 15:51:45 0° 298° (WNW) 2,707 10.9 26.7°
Reaches altitude 10° 15:53:49 10° 294° (WNW) 1,846 10.2 26.2°
Maximum altitude 15:57:48 61° 213° (SSW) 724 8.3 25.3°
Drops below altitude 10° 16:03:05 10° 133° (SE) 2,437 9.9 24.1°
Sets 16:06:12 0° 130° (SE) 3,687 10.8 23.4°
